Regional Weather Roundup
Issued by NWS Wakefield, VA

Home | Current Version | Previous Version | Graphics & Text | Print | Product List | Glossary On
Versions: 1 2 3 4 5 6 7 8 9 10 11 12 13 14 15 16 17 18 19 20 21 22 23 24 25 26 27 28 29 30 31 32 33 34 35 36 37 38 39 40 41 42 43 44 45 46 47 48 49 50
000
ASUS41 KAKQ 051715
RWRAKQ

REGIONAL WEATHER ROUNDUP
NATIONAL WEATHER SERVICE WAKEFIELD VA
100 PM EDT SUN JUL 05 2015

Note: "fair" indicates few or no clouds below 12,000 feet with no
significant weather and/or obstructions to visibility. * = Denotes
station may not report precipitation (e.g., rain,snow,etc.),
thunder or fog.

VAZ042-051-052>054-056-051800-
NORTHERN VIRGINIA

CITY           SKY/WX    TMP DP  RH WIND       PRES   REMARKS
WASH NATIONAL  MOSUNNY   81  69  67 CALM      30.15S
DULLES         PTSUNNY   78  69  73 VRB3      30.16S
FORT BELVOIR   MOSUNNY   80  69  69 VRB1      30.15S
QUANTICO       PTSUNNY   78  70  76 S6        30.16S
FREDERICKSBRG* CLOUDY    81  71  71 E6        30.14F
STAFFORD*      CLOUDY    77  68  73 SE3       30.19F
WARRENTON      CLOUDY    76  71  86 CALM      30.16F
CULPEPER*      CLOUDY    74  69  83 CALM      30.17S
MANASSAS*      CLOUDY    79  70  73 CALM      30.16
LEESBURG*      PTSUNNY   77  70  78 S7        30.17F
WINCHESTER     MOSUNNY   79  68  69 SE3       30.17S
FRONT ROYAL*   PTSUNNY   77  70  78 NE5       30.15S
LURAY*         CLOUDY    81  72  74 CALM      30.16S
$$

VAZ048-049-060>072-079>083-051800-
CENTRAL AND SOUTH CENTRAL VIRGINIA

CITY           SKY/WX    TMP DP  RH WIND       PRES   REMARKS
RICHMOND       CLOUDY    83  71  67 E9        30.14F
CHESTERFIELD*  NOT AVBL
PETERSBURG*    PTSUNNY   82  75  79 E7        30.14F
HANOVER        CLOUDY    79  69  71 VRB5      30.16F
TAPPAHANNOCK*  CLOUDY    81  69  66 E5        30.15F
QUINTON*       NOT AVBL
CHARLOTTSVILLE CLOUDY    75  68  78 NE6       30.17S
GORDONSVILLE*  CLOUDY    73  70  88 NE6       30.16S
ORANGE*        CLOUDY    72  70  94 CALM      30.18S FOG
LOUISA*        CLOUDY    77  72  83 NE3       30.15F HAZE
BUMPASS*       CLOUDY    76  71  82 E7        30.16F
FARMVILLE*     CLOUDY    80  70  71 NE6       30.13F
CREWE*         CLOUDY    80  72  76 NE3       30.13F
FORT PICKETT*  CLOUDY    81  73  77 E6        30.13F
CHASE CITY*    PTSUNNY   84  76  76 CALM      30.13F
CLARKSVILLE*   FAIR      82  73  74 E3        30.12F
SOUTH HILL*    PTSUNNY   83  73  72 CALM      30.18S
LAWRENCEVILLE* NOT AVBL
EMPORIA*         N/A     84  72  65 E5        30.14S
$$

VAZ088>098-051800-
SOUTHEAST VIRGINIA

CITY           SKY/WX    TMP DP  RH WIND       PRES   REMARKS
NORFOLK        SUNNY     81  72  74 NE12      30.13F
VIRGINIA BEACH MOSUNNY   84  71  65 E12       30.13F
NORFOLK NAVAL  PTSUNNY   81  72  74 E12       30.15S
WEST POINT*    PTSUNNY   85  69  58 E6        30.15F
SALUDA*        FAIR      78  71  77 E3        30.15S
NEWPORT NEWS   MOSUNNY   82  72  71 NE12      30.14S
LANGLEY AFB    PTSUNNY   80  73  77 NE9       30.12F
FORT EUSTIS    PTSUNNY   83  78  83 E7        30.12S
WILLIAMSBURG*  PTSUNNY   86  75  70 CALM      30.14F HX  95
HR EXEC AP*    PTSUNNY   82  73  74 NE6       30.14F
FRANKLIN*      CLOUDY    83  71  66 CALM      30.13R
WAKEFIELD      PTSUNNY   84  73  69 VRB6      30.13S
$$

VAZ020-022-025-037-045-051800-
WEST CENTRAL AND SOUTHWEST VIRGINIA

CITY           SKY/WX    TMP DP  RH WIND       PRES   REMARKS
STAUNTON*      CLOUDY    78  68  70 SE3       30.19S
WAYNESBORO*    CLOUDY    75  67  77 E7        30.18F
HOT SPRINGS VA CLOUDY    68  68 100 SE6       30.25F
LYNCHBURG      CLOUDY    75  70  84 NE5       30.16F
DANVILLE       CLOUDY    81  71  71 NE5       30.13F
SOUTH BOSTON*  FAIR      81  72  74 MISG      30.13S
MARTINSVILLE   CLOUDY    80  70  71 E3        30.16F
ROANOKE        CLOUDY    76  68  76 SE8       30.16F
BLACKSBURG     CLOUDY    75  70  84 E7        30.20F
DUBLIN*        PTSUNNY   78  71  77 E7        30.17F
MARION*        PTSUNNY   78  68  70 SE8       30.18F
HILLSVILLE*    PTSUNNY   75  67  76 SE7       30.18F
RICHLANDS*     PTSUNNY   75  66  71 SE7G16    30.14F
WISE*          CLOUDY    75  61  60 SE6       30.14F
ABINGDON*      CLOUDY    81  65  56 CALM      30.10F
$$

MDZ021>025-VAZ099-100-051800-
SOUTHERN MARYLAND AND THE DELMARVA PENINSULA

CITY           SKY/WX    TMP DP  RH WIND       PRES   REMARKS
PATUXENT RIVER PTSUNNY   78  68  71 SE6       30.15S
BAY BRIDGE APT   N/A     75  66  73 W3        30.15S
LEONARDTOWN    CLOUDY    77  68  73 E5        30.17S
DOVER          MOSUNNY   79  69  71 E10       30.14F
GEORGETOWN     PTSUNNY   80  69  69 VRB3      30.16S
EASTON         MOSUNNY   82  68  61 NE6       30.18F
CAMBRIDGE      MOSUNNY   79  64  61 SE3       30.15S
SALISBURY      PTSUNNY   80  68  66 E3        30.14F
OCEAN CITY     SUNNY     77  69  76 SE6       30.15F
WALLOPS ISLAND MOSUNNY   79  71  76 E5        30.15F
ACCOMACK*      MOSUNNY   79  72  78 S6        30.14F
$$

NCZ012>017-030>032-051800-
NORTH CENTRAL AND EASTERN NORTH CAROLINA

CITY           SKY/WX    TMP DP  RH WIND       PRES   REMARKS
ROANOKE RAPIDS FAIR      84  72  65 SW3       30.12S
RALEIGH        PTSUNNY   86  71  60 SW6       30.12S
ELIZABETH CITY MOSUNNY   82  74  76 SE9       30.13S
AHOSKIE*       MOSUNNY  N/A N/A N/A CALM      30.12S
EDENTON*         N/A     84  74  72 S7        30.13F
CURRITUCK*     MOSUNNY   83  71  68 NE10      30.14S
KILL DEVIL HLS SUNNY     87  71  58 W6        30.13S
MANTEO         SUNNY     82  73  73 W3        30.14F
CAPE HATTERAS  MOSUNNY   82  73  74 SW12      30.16S
TARBORO*         N/A     89  71  56 CALM      30.12F
GOLDSBORO      MOSUNNY   88  72  59 VRB7      30.10S HX  95
WASHINGTON     MOSUNNY   86  72  62 S3        30.13F
GREENVILLE     SUNNY     88  72  58 CALM      30.14S
NEW BERN       MOSUNNY   89  71  55 S9        30.14F HX  95
WILMINGTON     SUNNY     89  69  51 VRB6      30.13F
$$

VAZ048-051800-
ELSEWHERE

CITY           SKY/WX    TMP DP  RH WIND       PRES   REMARKS
HARRISBURG PA  CLOUDY    76  66  71 CALM      30.15S
BALTIMORE      PTSUNNY   79  66  64 CALM      30.15S
ANNAPOLIS      SUNNY     76  68  76 SE8       30.15S
ANDREWS AFB    PTSUNNY   79  75  89 S5        30.15S
PHILADELPHIA   MOSUNNY   80  62  54 S7        30.14F
HENDERSON NC   PTSUNNY   82  70  67 CALM      30.13S
GREENSBORO     CLOUDY    83  68  60 SW8G16    30.12F
ROCKY MOUNT    PTSUNNY   89  71  55 SW6       30.12R HX  95
$$

VAZ100-051800-
MARINE

STATION/POSITION TIME  TEMP    WIND        PRES    WAVE   SWELL
                       AIR SEA DIR/SP/G            HT/PER HT/PER
                 (UTC) (F)     (DEG/KT/KT) (MB)    (FT/S) (FT/S)
BRANDYWINE LGT   1600   72 74  180/  5/  6 1021.6R
CAPE MAY NJ      1600   74 77  170/  6/  8 1021.0R
LEWES DE         1600   75 73   70/  7/  8 1021.1S
15NM E FENWICK I 1650   74 74              1021.0S   4/ 6
OCEAN-CITY-INLET 1600   75 73  100/  4/  7 1021.2R
WACHAPREAGUE VA  1600   76 79   80/  7/  9 1021.1F
GOOSES REEF MD   1700   77 81     CALM     1022.0F
COVE POINT MD    1600   76     160/  3/  3 1021.7F
SOLOMONS ISLAND  1600      79                N/A
BISHOPS HEAD MD  1600   76     110/  3/  6 1020.9F
PINEY POINT MD   1600          180/  7/  7   N/A
CAMBRIDGE MD     1600   76 79   60/  4/  4 1020.8F
LEWISETTA VA     1600   76 80  110/  6/  7 1020.8S
RAPPAHANNOCK LGT 1600          360/  4/  5 1021.4F
STINGRAY PT      1700   77 81   60/  2/  4 1020.8F   1
YORK RVR RNG VA  1600   78      70/ 10/ 11 1020.3R
YORKTOWN VA      1600   78 80   80/  9/ 11 1020.6R
JAMESTOWN VA     1700   81 83  130/  6/ 10   N/A
DOMINION TERM VA 1600   78      90/ 10/ 12 1020.5S
KIPTOPEKE VA     1600      83   80/  9/ 12   N/A
CHES BAY BRIDGE  1600   76 77   50/ 10/ 12 1020.4R
CAPE HENRY VA    1600   76      70/ 10/ 11   N/A
CHESAPEAKE LGHT  1600   76      90/  8/  9 1021.6R
WILLOUBY STN VA  1600   77      80/ 10/ 11 1021.6S
CAPE HENRY BUOY  1628      78                N/A     2/ 6   2/14
1ST LANDING BUOY 1700      77              1020.3F   1/ 6
CAPE CHARLES BUO 1626      77                N/A     2/ 6   2/ 6
OFFSHORE WE BUOY 1611      77                N/A     3/ 6   3/ 6
64NM E OF VA BCH 1650   76 78   60/  6/  6 1020.5S   4/ 6   3/ 6
DUCK PIER NC     1600   82 77  190/  2/  3   N/A
44100 DUCK FRF   1624      80                N/A     2/ 6
44056 DUCK FRF   1611      80                N/A     2/14
OREGON INLET NC  1600   82 80  250/  4/  5 1020.8R
HATTERAS NC      1600   82 79  210/ 10/ 14 1020.7F
DIAMOND SHLS NC  1650   80 81  230/ 14/ 16 1020.8S   3/ 5   2/ 9
CAPE LOOKOUT NC  1700   82     220/  9/ 12 1020.8F
$$



USA.gov is the U.S. government's official web portal to all federal, state and local government web resources and services.